[ hide orbit diagram ]
For accurate long-term ephemerides, please instead use our Horizons system.This orbit viewer was implemented using two-body methods, and hence should not be used for determining accurate long-term trajectories (over several years or decades) or planetary encounter circumstances.
Orbital Elements at Epoch 2459000.5 (2020-May-31.0) TDB
Reference: JPL 17 (heliocentric ecliptic J2000)
Element | Value | Uncertainty (1-sigma) | Units |
e | .2085329254682317 | 4.9494e-08 | |
a | 2.712072024474839 | 2.3038e-08 | au |
q | 2.146515711130551 | 1.2372e-07 | au |
i | 12.61802683276144 | 6.2784e-06 | deg |
node | 174.5108679277238 | 2.0577e-05 | deg |
peri | 98.17884592654252 | 3.919e-05 | deg |
M | 19.36543062384711 | 2.4484e-05 | deg |
tp | 2458912.744385196094 (2020-Mar-04.24438520) | 0.00011077 | TDB |
period | 1631.361674472807 4.47 | 2.0787e-05 5.691e-08 | d yr |
n | .2206745479149116 | 2.8118e-09 | deg/d |
Q | 3.277628337819126 | 2.7842e-08 | au |
|
| | Orbit Determination Parameters
Additional Information
|
[ show covariance matrix ]
Physical Parameter Table
Parameter |
Symbol |
Value |
Units |
Sigma |
Reference |
Notes |
absolute magnitude |
H |
17.1 |
|
n/a |
MPO472397 |
|
|
434772 (2006 KT44) Discovered 2006-May-21 by Spacewatch at Kitt Peak |
Reference: | Last Updated: 2015-06-04 |
|
[ show close-approach data ]
|